Regional Weather Roundup
Issued by NWS

Home | Current Version | Previous Version | Text Only | Print | Product List | Glossary On
Versions: 1 2 3 4 5 6 7 8 9 10 11 12 13 14 15 16 17 18 19 20 21 22 23 24 25 26 27 28 29 30 31 32 33 34 35 36 37 38 39 40 41 42 43 44 45 46 47 48 49 50
410
ASUS43 KDTX 221410
RWRMI
MICHIGAN HOURLY REGIONAL WEATHER ROUNDUP
NATIONAL WEATHER SERVICE DETROIT/PONTIAC MI
900 AM EST SUN JAN 22 2017

NOTE: "FAIR" INDICATES FEW OR NO CLOUDS BELOW 12,000 FEET WITH NO
SIGNIFICANT WEATHER AND/OR OBSTRUCTION TO VISIBILITY.

MIZ047>049-052>055-059>063-066>070-074>076-081>083-221500-
SOUTHEAST LOWER MICHIGAN

CITY           SKY/WX    TMP DP  RH WIND       PRES   REMARKS
ADRIAN         FOG       40  40 100 NE3       29.62S VSB<1/4
ALMA           FOG       35  35  99 CALM      29.65R VSB 1/4
ANN ARBOR      FOG       42  42 100 CALM      29.62S VSB<1/4
BAD AXE        FOG       39  39 100 SW3       29.65R VSB 1/4
CARO           FOG       40  40  99 CALM      29.64R VSB 1/4
DETROIT CITY   FOG       41  41 100 CALM      29.63S VSB 1/4
DETROIT        FOG       43  42  97 CALM      29.63S VSB 1/8
FLINT          FOG       40  40 100 CALM      29.64R VSB<1/4
GROSSE ILE     CLOUDY    40  40  99 CALM      29.62S FOG
HILLSDALE      FOG       41  41 100 CALM      29.59S VSB 1/4
HOWELL         FOG       41  40  97 CALM      29.62S VSB<1/4

CITY           SKY/WX    TMP DP  RH WIND       PRES   REMARKS
JACKSON        FOG       44  43  96 CALM      29.61R VSB<1/4
LAMBERTVILLE   FOG       44  43  95 CALM      29.60S VSB<1/4
LANSING        FOG       40  37  89 N3        29.64R VSB<1/4
LAPEER         FOG       38  38 100 CALM      29.64R VSB 1/4
MASON          FOG       40  40 100 CALM      29.62S VSB<1/4
MONROE         FOG       40  40 100 NW5       29.60F VSB 1
PONTIAC        FOG       39  37  92 N3        29.61R VSB 1/4
PORT HOPE        N/A     39  38  96 CALM      29.63R
PORT HURON     FOG       39  39 100 CALM      29.64S VSB<1/4
TRI CITIES     FOG       37  37 100 NE3       29.65R VSB 1/16
MIDLAND        FOG       38  38  97 CALM      29.64R VSB<1/4
TROY           FOG       40  39  95 CALM      29.64S VSB 1/4
SAGINAW HB     FOG       37  36  93 CALM      29.64S VSB<1/4
$$
MIZ043>046-050>051-056>058-064>065-071>073-077>080-221500-
SOUTHWEST LOWER MICHIGAN

CITY           SKY/WX    TMP DP  RH WIND       PRES   REMARKS
BATTLE CREEK   FOG       40  40 100 NE3       29.62R VSB<1/4
BENTON HARBOR  FOG       40  38  93 N6        29.62S VSB 1/4
BIG RAPIDS     FOG       36  35  98 CALM      29.62R VSB 1/4
COLDWATER      FOG       40  40 100 CALM      29.60S VSB 1/4
FREMONT        FOG       37  37 100 CALM      29.63R VSB<1/4
HOLLAND        CLOUDY    41  40  96 CALM      29.64R
GRAND RAPIDS   FOG       34  33  96 CALM      29.63R VSB 1/8
IONIA          FOG       32  32 100 NE5       29.64R VSB<1/4 WCI  28
KALAMAZOO      FOG       38  36  92 CALM      29.62R VSB<1/4
LUDINGTON      FOG       39  39 100 CALM      29.62R VSB 3/4
MARSHALL       FOG       43  43  99 CALM      29.61R VSB 1/4
MOUNT PLEASANT FOG       37  36  99 CALM      29.64R VSB<1/4
MUSKEGON       CLOUDY    42  40  92 SE3       29.64R FOG
SOUTH HAVEN    FOG       39  39 100 CALM      29.63S VSB<1/4
$$
MIZ016>042-221500-
NORTHERN LOWER MICHIGAN

CITY           SKY/WX    TMP DP  RH WIND       PRES   REMARKS
ALPENA         FOG       37  36  96 CALM      29.64R VSB 1/2
BEAVER ISLAND  FOG       37  37 100 CALM      29.62R VSB<1/4
BELLAIRE       FOG       35  35 100 CALM      29.64R VSB 1/4
CADILLAC       FOG       35  35  96 CALM      29.61R VSB 1/4
CHARLEVOIX     FOG       36  36 100 CALM      29.66R VSB 1/2
FRANKFORT      CLOUDY    37  37 100 CALM      29.62R FOG
GAYLORD        FOG       39  36  89 CALM      29.61R VSB 1/4
GRAYLING       FOG       35  35  99 CALM      29.63R VSB 1/4
HARBOR SPRINGS FOG       35  35 100 CALM      29.63R VSB 1/4
HOUGHTON LAKE  FOG       38  37  97 CALM      29.62R VSB 1/4
MANISTEE       FOG       37  37 100 NE7       29.62R VSB 1/2 WCI  32
OSCODA         FOG       38  37  97 CALM      29.63S VSB 1/2
PELLSTON       FOG       35  34  96 E3        29.63R VSB<1/4
ROGERS CITY    FOG       36  35  96 CALM      29.65R VSB<1/4
TRAVERSE CITY  FOG       37  36  96 CALM      29.62R VSB 3/4
$$
MIZ007>008-015-221500-
EASTERN UPPER MICHIGAN

CITY           SKY/WX    TMP DP  RH WIND       PRES   REMARKS
KINROSS        FOG       34  34 100 E7        29.63R VSB 1/4 WCI  28
MACKINAC ISLAN FOG       35  35 100 E5        29.62R VSB<1/4 WCI  31
NEWBERRY       FOG       35  34  97 SE3       29.60R VSB<1/4
S. S. MARIE    FOG       37  36  96 E5        29.64R VSB 1   WCI  33
MUNISING         N/A     36  36 100 CALM      29.59R
$$
MIZ004>006-011>014-085-221500-
CENTRAL UPPER MICHIGAN

CITY           SKY/WX    TMP DP  RH WIND       PRES   REMARKS
MANISTIQUE     FOG       33  32  97 SE3       29.61R VSB<1/4
ESCANABA       CLOUDY    34  33  96 CALM      29.60R FOG
SAWYER-GWINN   CLOUDY    32  32 100 CALM      29.58R
$$
MIZ001>003-009>011-084-221500-
WESTERN UPPER MICHIGAN

CITY           SKY/WX    TMP DP  RH WIND       PRES   REMARKS
IRON MOUNTAIN  CLOUDY    33  31  92 CALM      29.57R FOG
HOUGHTON       CLOUDY    34  33  96 CALM      29.57R FOG
COPPER HARBOR    N/A     35  35 100 W5        29.58R WCI  31
IRONWOOD       FOG       33  33 100 W6        29.59R VSB 1/4 WCI  28
$$

ABBREVIATIONS USED IN REMARKS
   TC - TEMPERATURE IN CELSIUS
  WCI - WIND CHILL INDEX
   HX - HEAT INDEX
  VSB - VISIBILITY





USA.gov is the U.S. government's official web portal to all federal, state and local government web resources and services.